| time (UTC) | temp F | wind direction | speed MPH | gust MPH | rain 1hr in | rain 24hr in | rain mn in | humidity % | barometer mb |
| 20260503015123 | 49 | 195 | 2.0 | 4.0 | 0.00 | 0.00 | 0.00 | 90 | 1009.9 |
| 20260503014103 | 49 | 174 | 2.0 | 3.0 | 0.00 | 0.00 | 0.00 | 90 | 1009.9 |
| 20260503013102 | 49 | 171 | 1.0 | 3.0 | 0.00 | 0.00 | 0.00 | 90 | 1009.9 |
| 20260503012102 | 49 | 161 | 1.0 | 2.0 | 0.00 | 0.00 | 0.00 | 89 | 1010.0 |
| 20260503011103 | 49 | 154 | 0.0 | 1.0 | 0.00 | 0.00 | 0.00 | 89 | 1009.9 |
| 20260503005103 | 49 | 148 | 1.0 | 4.0 | 0.00 | 0.00 | 0.00 | 89 | 1009.9 |
| 20260503004103 | 49 | 167 | 1.0 | 4.0 | 0.00 | 0.00 | 0.00 | 89 | 1009.8 |
| 20260503003102 | 50 | 156 | 3.0 | 5.0 | 0.00 | 0.00 | 0.00 | 88 | 1009.9 |
| 20260503002103 | 50 | 175 | 0.0 | 5.0 | 0.00 | 0.00 | 0.00 | 88 | 1009.8 |
| 20260503001102 | 50 | 149 | 3.0 | 5.0 | 0.00 | 0.00 | 0.00 | 88 | 1009.6 |
| 20260503000103 | 50 | 187 | 3.0 | 4.0 | 0.00 | 0.00 | 0.00 | 87 | 1009.8 |
| 20260502235103 | 50 | 216 | 2.0 | 2.0 | 0.00 | 0.00 | 0.00 | 87 | 1009.7 |
| 20260502234102 | 50 | 224 | 2.0 | 3.0 | 0.00 | 0.00 | 0.00 | 87 | 1009.8 |
| 20260502233103 | 50 | 212 | 2.0 | 4.0 | 0.00 | 0.00 | 0.00 | 87 | 1009.8 |
| 20260502232102 | 50 | 201 | 2.0 | 5.0 | 0.00 | 0.00 | 0.00 | 87 | 1009.7 |
| 20260502231103 | 50 | 231 | 3.0 | 7.0 | 0.00 | 0.00 | 0.00 | 87 | 1009.8 |
| 20260502225103 | 51 | 196 | 2.0 | 8.0 | 0.00 | 0.00 | 0.00 | 86 | 1009.9 |
| 20260502224124 | 51 | 218 | 3.0 | 7.0 | 0.00 | 0.00 | 0.00 | 85 | 1009.9 |
| 20260502223123 | 51 | 249 | 4.0 | 7.0 | 0.00 | 0.00 | 0.00 | 85 | 1009.8 |
| 20260502222103 | 51 | 217 | 2.0 | 7.0 | 0.00 | 0.00 | 0.00 | 85 | 1009.7 |
| 20260502221102 | 51 | 261 | 2.0 | 6.0 | 0.00 | 0.00 | 0.00 | 85 | 1009.7 |
| 20260502215102 | 51 | 283 | 1.0 | 4.0 | 0.00 | 0.00 | 0.00 | 85 | 1009.5 |
| 20260502214104 | 51 | 250 | 2.0 | 5.0 | 0.00 | 0.00 | 0.00 | 85 | 1009.6 |
| 20260502211103 | 51 | 193 | 5.0 | 9.0 | 0.00 | 0.00 | 0.00 | 85 | 1009.6 |
| 20260502205102 | 51 | 204 | 5.0 | 9.0 | 0.00 | 0.00 | 0.00 | 85 | 1009.7 |
| 20260502204103 | 52 | 194 | 9.0 | 12.0 | 0.00 | 0.00 | 0.00 | 84 | 1009.8 |
| 20260502203102 | 52 | 192 | 6.0 | 12.0 | 0.00 | 0.00 | 0.00 | 83 | 1009.8 |
| 20260502202103 | 52 | 196 | 9.0 | 17.0 | 0.00 | 0.00 | 0.00 | 83 | 1009.8 |
| 20260502201102 | 52 | 193 | 5.0 | 12.0 | 0.00 | 0.00 | 0.00 | 82 | 1010.0 |
| 20260502200124 | 52 | 219 | 3.0 | 14.0 | 0.00 | 0.00 | 0.00 | 82 | 1010.1 |
| 20260502195124 | 53 | 239 | 4.0 | 19.0 | 0.00 | 0.00 | 0.00 | 82 | 1010.2 |
| 20260502194102 | 53 | 205 | 8.0 | 17.0 | 0.00 | 0.00 | 0.00 | 82 | 1010.1 |
| 20260502193103 | 53 | 182 | 5.0 | 12.0 | 0.00 | 0.00 | 0.00 | 83 | 1010.2 |
| 20260502192103 | 53 | 220 | 4.0 | 10.0 | 0.00 | 0.00 | 0.00 | 84 | 1010.5 |
| 20260502191102 | 53 | 193 | 5.0 | 9.0 | 0.00 | 0.00 | 0.00 | 82 | 1010.6 |
| 20260502190124 | 52 | 226 | 3.0 | 9.0 | 0.00 | 0.00 | 0.00 | 80 | 1010.7 |
| 20260502185102 | 53 | 195 | 5.0 | 13.0 | 0.00 | 0.00 | 0.00 | 79 | 1010.6 |
| 20260502184102 | 53 | 205 | 10.0 | 20.0 | 0.00 | 0.00 | 0.00 | 75 | 1010.9 |
| 20260502183103 | 53 | 188 | 11.0 | 15.0 | 0.00 | 0.00 | 0.00 | 77 | 1010.8 |
| 20260502182102 | 54 | 199 | 7.0 | 13.0 | 0.00 | 0.00 | 0.00 | 74 | 1010.8 |
| 20260502181103 | 54 | 218 | 8.0 | 18.0 | 0.00 | 0.00 | 0.00 | 73 | 1010.8 |
| 20260502164102 | 56 | 189 | 8.0 | 14.0 | 0.00 | 0.00 | 0.00 | 75 | 1010.7 |
| 20260502163102 | 56 | 191 | 8.0 | 14.0 | 0.00 | 0.00 | 0.00 | 77 | 1010.7 |
| 20260502162102 | 56 | 172 | 8.0 | 14.0 | 0.00 | 0.00 | 0.00 | 77 | 1010.8 |
| 20260502161103 | 57 | 194 | 10.0 | 14.0 | 0.00 | 0.00 | 0.00 | 75 | 1011.0 |
| 20260502152102 | 57 | 212 | 8.0 | 12.0 | 0.00 | 0.00 | 0.00 | 73 | 1011.6 |
| 20260502151103 | 58 | 191 | 7.0 | 13.0 | 0.00 | 0.00 | 0.00 | 77 | 1011.1 |
| 20260502130123 | 52 | 252 | 4.0 | 8.0 | 0.00 | 0.00 | 0.00 | 82 | 1012.1 |
| 20260502123102 | 52 | 243 | 5.0 | 12.0 | 0.00 | 0.00 | 0.00 | 81 | 1012.0 |
| 20260502122124 | 52 | 225 | 7.0 | 13.0 | 0.00 | 0.00 | 0.00 | 81 | 1012.0 |
| 20260502121103 | 52 | 247 | 6.0 | 12.0 | 0.00 | 0.00 | 0.00 | 83 | 1011.9 |
| 20260502115102 | 50 | 215 | 5.0 | 8.0 | 0.00 | 0.00 | 0.00 | 83 | 1011.7 |
| 20260502114102 | 50 | 202 | 4.0 | 11.0 | 0.00 | 0.00 | 0.00 | 84 | 1011.5 |
| 20260502113102 | 50 | 215 | 5.0 | 11.0 | 0.00 | 0.00 | 0.00 | 84 | 1011.5 |
| 20260502112102 | 49 | 210 | 3.0 | 7.0 | 0.00 | 0.00 | 0.00 | 85 | 1011.6 |
| 20260502111102 | 48 | 194 | 3.0 | 5.0 | 0.00 | 0.00 | 0.00 | 85 | 1011.5 |
| 20260502110104 | 48 | 192 | 4.0 | 7.0 | 0.00 | 0.00 | 0.00 | 85 | 1011.7 |
| 20260502105102 | 47 | 202 | 4.0 | 6.0 | 0.00 | 0.00 | 0.00 | 87 | 1011.6 |
| 20260502104103 | 46 | 229 | 2.0 | 4.0 | 0.00 | 0.00 | 0.00 | 88 | 1011.2 |
| 20260502103102 | 45 | 189 | 3.0 | 4.0 | 0.00 | 0.00 | 0.00 | 87 | 1011.2 |
| 20260502102104 | 45 | 205 | 1.0 | 3.0 | 0.00 | 0.00 | 0.00 | 87 | 1011.2 |
| 20260502101103 | 44 | 237 | 2.0 | 7.0 | 0.00 | 0.00 | 0.00 | 87 | 1011.4 |
| 20260502091102 | 43 | 232 | 2.0 | 5.0 | 0.00 | 0.00 | 0.00 | 87 | 1011.1 |
| 20260502071103 | 43 | 242 | 1.0 | 2.0 | 0.00 | 0.00 | 0.00 | 88 | 1010.9 |
| 20260502065102 | 43 | 228 | 1.0 | 3.0 | 0.00 | 0.00 | 0.00 | 87 | 1011.0 |
| 20260502064103 | 44 | 255 | 1.0 | 2.0 | 0.00 | 0.00 | 0.00 | 87 | 1011.1 |
| 20260502063102 | 44 | 255 | 1.0 | 3.0 | 0.00 | 0.00 | 0.00 | 87 | 1011.2 |
| 20260502062103 | 43 | 210 | 2.0 | 4.0 | 0.00 | 0.00 | 0.00 | 85 | 1011.2 |
| 20260502061102 | 44 | 205 | 1.0 | 3.0 | 0.00 | 0.00 | 0.00 | 84 | 1011.0 |
| 20260502055102 | 45 | 208 | 1.0 | 2.0 | 0.00 | 0.00 | 0.00 | 81 | 1011.4 |
| 20260502054124 | 45 | 208 | 1.0 | 2.0 | 0.00 | 0.00 | 0.00 | 81 | 1011.4 |
| 20260502053124 | 46 | 208 | 1.0 | 2.0 | 0.00 | 0.00 | 0.00 | 79 | 1011.3 |
| 20260502052102 | 47 | 208 | 1.0 | 3.0 | 0.00 | 0.00 | 0.00 | 77 | 1011.2 |
| 20260502051103 | 48 | 222 | 2.0 | 3.0 | 0.00 | 0.00 | 0.00 | 76 | 1011.3 |
| 20260502045102 | 48 | 228 | 2.0 | 6.0 | 0.00 | 0.00 | 0.00 | 76 | 1011.3 |
| 20260502044102 | 48 | 250 | 2.0 | 6.0 | 0.00 | 0.00 | 0.00 | 76 | 1011.4 |
| 20260502043102 | 48 | 221 | 3.0 | 7.0 | 0.00 | 0.00 | 0.00 | 76 | 1011.4 |
| 20260502042103 | 48 | 238 | 3.0 | 6.0 | 0.00 | 0.00 | 0.00 | 76 | 1011.5 |
| 20260502041102 | 48 | 254 | 2.0 | 5.0 | 0.00 | 0.00 | 0.00 | 75 | 1011.4 |
| 20260502035102 | 49 | 241 | 3.0 | 7.0 | 0.00 | 0.00 | 0.00 | 73 | 1011.4 |
| 20260502034102 | 49 | 246 | 2.0 | 5.0 | 0.00 | 0.00 | 0.00 | 72 | 1011.4 |
| 20260502033124 | 49 | 224 | 3.0 | 7.0 | 0.00 | 0.00 | 0.00 | 70 | 1011.3 |
| 20260502032102 | 50 | 245 | 3.0 | 8.0 | 0.00 | 0.00 | 0.00 | 70 | 1011.3 |
| 20260502031102 | 50 | 247 | 3.0 | 8.0 | 0.00 | 0.00 | 0.00 | 69 | 1011.3 |
| 20260502025102 | 51 | 253 | 2.0 | 8.0 | 0.00 | 0.00 | 0.00 | 67 | 1011.1 |
| 20260502024124 | 51 | 250 | 3.0 | 8.0 | 0.00 | 0.00 | 0.00 | 66 | 1011.1 |
| 20260502023103 | 51 | 248 | 3.0 | 8.0 | 0.00 | 0.00 | 0.00 | 65 | 1011.1 |
| 20260502022103 | 51 | 246 | 4.0 | 10.0 | 0.00 | 0.00 | 0.00 | 64 | 1011.1 |
| 20260502021102 | 51 | 245 | 3.0 | 7.0 | 0.00 | 0.00 | 0.00 | 64 | 1011.1 |